Regional Weather Roundup
Issued by NWS

Home | Current Version | Previous Version | Graphics & Text | Print | Product List | Glossary On
Versions: 1 2 3 4 5 6 7 8 9 10 11 12 13 14 15 16 17 18 19 20 21 22 23 24 25 26 27 28 29 30 31 32 33 34 35 36 37 38 39 40 41 42 43 44 45 46 47 48 49 50
753
ASUS45 KABQ 301601
RWRNM
NEW MEXICO REGIONAL WEATHER ROUNDUP
NATIONAL WEATHER SERVICE ALBUQUERQUE NM
1000 AM MDT FRI SEP 30 2016

NOTE: "FAIR" MEANS FEW OR NO CLOUDS BELOW 12,000 FEET AGL WITH NO
       SIGNIFICANT WEATHER OR OBSTRUCTIONS TO VISION.

      THIS PRODUCT IS RELEASED AS TWO VERSIONS.  ONE VERSION NEAR
      THE TOP OF THE HOUR CONTAINING PRELIMINARY DATA FROM ALBUQUERQUE
      AND OTHER STATIONS.  A FINAL VERSION WITH ADDITIONAL DATA IS
      ISSUED ABOUT 10 MINUTES AFTER THE HOUR.

NMZ501-503-504-510>518-301700-
NORTHWEST PLATEAU/NORTHCENTRAL MOUNTAINS

CITY           SKY/WX    TMP DP  RH WIND       PRES   REMARKS
FARMINGTON     FAIR      55  52  89 CALM      30.35S
LOS ALAMOS     FAIR      57  47  68 NE3       30.42S
SANTA FE       FAIR      63  48  58 W3        30.36F
TAOS           FAIR      57  43  58 CALM      30.42S
ANGEL FIRE     FAIR      56  42  59 W12G18    30.46S

$$
NMZ402-403-502-505>509-301700-
WESTCENTRAL MOUNTAINS/SOUTHWEST MOUNTAINS

CITY           SKY/WX    TMP DP  RH WIND       PRES   REMARKS
GALLUP         FAIR      55  49  80 CALM      30.40S
SILVER CITY    FAIR      62  55  76 W5        30.36S

$$
NMZ407-409-411-412-301700-
SOUTHERN DESERTS

CITY           SKY/WX    TMP DP  RH WIND       PRES   REMARKS
DEMING         FAIR      66  57  72 SE8       30.31S
LAS CRUCES     CLOUDY    64  60  88 S10       30.32R
ALAMOGORDO     LGT RAIN  61  61 100 N8        30.30R
T OR C         FAIR      62  54  74 CALM      30.31S

$$
NMZ519>523-301700-
CENTRAL VALLEYS/CENTRAL HIGHLANDS

CITY           SKY/WX    TMP DP  RH WIND       PRES   REMARKS
ALBUQUERQUE    FAIR      62  54  74 SW6       30.35R
DOUBLE EAGLE   MOSUNNY   61  54  77 S5        30.37R
CLINES CORNERS FAIR      62  47  57 NW20      30.39R
BELEN          PTSUNNY   60  55  83 S5        30.35S
SOCORRO        FAIR      62  55  77 CALM      30.33R

$$
NMZ524>526-539-540-301700-
SOUTHCENTRAL MOUNTAINS

CITY           SKY/WX    TMP DP  RH WIND       PRES   REMARKS
RUIDOSO        FAIR      55  54  94 NW5       30.41R

$$
NMZ527>531-301700-
NORTHEAST HIGHLANDS/NORTHEAST PLAINS

CITY           SKY/WX    TMP DP  RH WIND       PRES   REMARKS
LAS VEGAS      FAIR      68  42  38 SW9       30.34S
RATON          FAIR      61  39  44 CALM      30.29S
CLAYTON        FAIR      69  48  47 SW13      30.23R

$$
NMZ532>537-301700-
EASTCENTRAL PLAINS

CITY           SKY/WX    TMP DP  RH WIND       PRES   REMARKS
TUCUMCARI      FAIR      69  49  48 SW18      30.21S
CANNON AFB     CLOUDY    69  51  51 SW16      30.26F
CLOVIS AIRPORT FAIR      66  48  52 S15       30.26F

$$
NMZ028-029-538-301700-
SOUTHEAST PLAINS

CITY           SKY/WX    TMP DP  RH WIND       PRES   REMARKS
ROSWELL        FAIR      65  50  58 S21       30.24F
ARTESIA        FAIR      64  54  68 S15       30.27S
CARLSBAD       FAIR      66  53  63 S8        30.26F
HOBBS          SUNNY     63  48  59 SE8       30.31S


$$




USA.gov is the U.S. government's official web portal to all federal, state and local government web resources and services.